Regional Weather Roundup
Issued by NWS Kansas City/Pleasant Hill, MO

Home | Current Version | Previous Version | Graphics & Text | Print | Product List | Glossary Off
Versions: 1 2 3 4 5 6 7 8 9 10 11 12 13 14 15 16 17 18 19 20 21 22 23 24 25 26 27

000
ASUS43 KEAX 232310
RWREAX

WEATHER ROUNDUP FOR EASTERN KANSAS AND NORTHWEST MISSOURI
NATIONAL WEATHER SERVICE KANSAS CITY/PLEASANT HILL MO
600 PM CDT MON APR 23 2018

KSZ040-057-103>105-MOZ028-029-037-043-240000-
...KANSAS CITY METROPOLITAN AREA...

CITY           SKY/WX    TMP DP  RH WIND       PRES   REMARKS
K.C. INTL      MOSUNNY   74  32  21 NE8       30.01F
K.C. DOWNTOWN  SUNNY     75  33  21 N12       29.99F
LEES SUMMIT    SUNNY     74  32  21 NE16      30.01S
OLATHE - IXD   SUNNY     75  33  21 NE8       30.01F
OLATHE - OJC   SUNNY     73  33  23 E9        30.00F
LAWRENCE       SUNNY     76  31  19 N7        30.01S

$$

MOZ001>008-011>017-020>025-030>033-038>040-044>046-053-054-240000-
...NORTHERN AND CENTRAL MISSOURI...

CITY           SKY/WX    TMP DP  RH WIND       PRES   REMARKS
ST. JOSEPH     SUNNY     75  34  22 NE8G25    30.02F
MOSBY          CLEAR     73  28  19 NE13      30.01S
WARRENSBURG    MOSUNNY   72  30  21 NE15G22   30.00S
WHITEMAN AFB   PTSUNNY   71  33  25 NE16G23   29.96S
CLINTON        MOSUNNY   68  39  34 N14       30.00S
SEDALIA        CLOUDY    69  39  33 NE13      30.00S
WARSAW         NOT AVBL
CHILLICOTHE      N/A     74  32  21 E8        30.02S
KIRKSVILLE     CLOUDY    67  33  28 N14       30.03S

$$

MOZ041-047>049-056>058-063>065-088>090-097-240000-
...EASTERN AND SOUTHERN MISSOURI...

CITY           SKY/WX    TMP DP  RH WIND       PRES   REMARKS
ST. LOUIS INTL CLOUDY    59  54  83 NE12      29.98S
SPIRIT OF STL  CLOUDY    60  54  80 NE9       29.97R
COLUMBIA       CLOUDY    70  43  37 NE10G20   29.97R
JEFFERSON CITY CLOUDY    69  48  47 E7        29.96R
ROLLA          CLOUDY    60  51  72 NE10      29.98R
OSAGE BEACH    CLOUDY    66  50  56 E6        29.98R
SPRINGFIELD    CLOUDY    66  44  45 N15       29.96R
BRANSON        CLOUDY    64  46  52 N10G21    29.96R
JOPLIN         PTSUNNY   70  41  34 N15G23    29.98S
WEST PLAINS    CLOUDY    58  52  80 N13       29.95R

$$

IAZ060-094-KSZ022-034>040-054-083-096-NEZ052-066-093-240000-
...KANSAS...SOUTHEAST NEBRASKA AND IOWA...

CITY           SKY/WX    TMP DP  RH WIND       PRES   REMARKS
TOPEKA         SUNNY     76  33  21 VRB6      30.01S
MANHATTAN      SUNNY     74  35  24 NE6       30.02F
EMPORIA        SUNNY     73  38  27 E7        30.01F
CHANUTE        SUNNY     75  41  29 N8        30.00F
WICHITA        MOSUNNY   73  43  33 NE7       30.02F
OMAHA          MOSUNNY   75  28  17 NE7       30.06S
LINCOLN        SUNNY     74  29  19 NE7       30.07F
FALLS CITY     SUNNY     74  28  18 NE9       30.03F
LAMONI         SUNNY     72  31  22 NE13      30.05S
DES MOINES     MOSUNNY   73  28  18 NE10      30.06F

$$





USA.gov is the U.S. government's official web portal to all federal, state and local government web resources and services.